COSMOS 1275 DEB, 42140

Orbit data source: Space-Track

COSMOS 1275 DEB, 42140 is space debris in LEO originally from a launch on Thu, 04 Jun 1981 UTC launched from the Plesetsk Missile And Space Complex (PKMTR). Debris objects in space refer to the collection of defunct objects orbiting the Earth. Examples of debris include non-operational satellites, rocket bodies, and fragments generated from explosions, collisions, or faulty payload assembly.

Loading next visibility...
Identifier
42140, 1981-053RC
Orbit
LEO
Country
Flag of CISCIS
Related business
Manufacturer
Unknown
Mission
Spacecraft
Bus & Motor
Unknown
Mass
Unknown
Launch date (UTC)
1981-06-04 (45 years ago)
Launch vehicle
Unknown
Launch site
Plesetsk Missile And Space Complex (PKMTR)
Object type
Payload
Rocket body
Debris
Shape & HBR
Unknown shape, 0.1 m
Radar Cross Section
Small (<0.1 m²)

Expand to show TLE details & history
Last TLE update: 13 hours ago

TLE from 13 hours ago
0 COSMOS 1275 DEB
1 42140U 81053RC  25352.41870411  .00000686  00000-0  93548-3 0  9993
2 42140  83.1379 248.3448 0201115 320.5968  38.0688 13.49909294561139
Epoch: 2025-12-18T10:02Z
TLE epoch observation values (Epoch: 2025-12-18T10:02:56.035Z)
Latitude
0.00005°
Longitude
10.33684°
Altitude
958.646 km
Speed
7.43 km/s
True Right ascension
16h 33m 22s
True Declination
0° 00' 00"
Sunlit
Object was in daylight at epoch
Visualization orbit readout
Latitude
Unknown
Longitude
Unknown
Altitude
Unknown
Speed
Unknown
Apparent Right ascension
Unknown
Apparent Declination
Unknown
Sunlit
N/A
Visualization observer readout
Local Sidereal Time
21:35:18
Azimuth
Unknown
Elevation
Unknown
Doppler factor
Unknown
Orbital elements
Apogee altitude
1,219.556 km
Perigee altitude
919.978 km
Semi-major axis
7,447.904 km
Eccentricity
0.02011
Inclination
83.1379°
RAAN
248.3448°
Arg. of periapsis
320.5968°
True anomaly
39.51835°
Mean anomaly
38.0688°
Eccentric anomaly
38.79069°
Mean motion
3.3767 °/min
Orbital period
106.61 mins
BSTAR
0.00093548
Loading maneuver chart data...
Computing Atmospheric mass density...
Loading historical data...
Loading historical data...
Loading historical data...
Loading historical data...
Loading historical data...
Loading historical data...
Loading historical data...

Documentation

Showing up to 5 results
|